LT-1 01B

导读 | 豆包AI

LT-1 01B(陆地探测一号01组B星)是中国于2022年2月26日成功发射的科研卫星,属于《国家民用空间基础设施中长期发展规划》首个立项科研卫星工程,与此前发射的A星组成双星编队。卫星配置L波段合成孔径雷达载荷,具备全天候成像能力,可开展地表形变测量、数字高程模型获取等观测任务,服务国土资源、防灾减灾等多个领域应用需求。

Basic Information
目录编号:
51822
目录名称:
LT-1 01B
国际标识:
2022-018A
轨道中心:
EARTH
卫星名称:
LT-1 01B
卫星全名:
--
卫星状态:
在轨 (已飞行1549 天)
发射日期:
2022-02-26 UTC
国别 :
中国 (CN)
星等 :
--
Orbit Information
数据来源 国际轨道数据 AOE轨道数据
星历时间 2026-05-24T13:09:12+0800
20小时前
查看轨道信息
2026-05-23T08:00:00+0800
2天前
查看轨道信息
半长轴 6981.028km 6981.025km
偏心率 0.00016 0.0001564
轨道倾角 97.809° 97.808°
近地点辐角 91.503° 93.393°
升交点赤经 151.971° 150.774°
平近点角 268.637° 241.941°
近地点 601.774km 601.796km
远地点 604.008km 603.98km
周期 96.747分钟 96.747分钟
每日圈数 14.884141 14.884148
Detailed Information
使用方式:
暂无
2D Orbit Map
3D Orbit Map
Orbit Altitude Analysis Chart
Orbit Inclination Analysis Chart
Orbit Comprehensive Analysis Chart
View Comprehensive Chart